Hourly Weather Snovo-Zdorovo

Today, 4 March, Thursday

Time Temperature Precipitation Wind Pressure Humidity
00:00 -5°C° 0 mm 6 mps 746 mmHg 91%
01:00 -5°C° 0 mm 5 mps 745 mmHg 91%
02:00 -5°C° 0 mm 5 mps 745 mmHg 91%
03:00 -4°C° 0 mm 5 mps 744 mmHg 93%
04:00 -4°C° 0 mm 5 mps 743 mmHg 93%
05:00 -4°C° 0 mm 6 mps 743 mmHg 93%
06:00 -4°C° 0 mm 6 mps 742 mmHg 92%
07:00 -4°C° 0.3 mm 7 mps 742 mmHg 93%
08:00 -4°C° 0.3 mm 8 mps 741 mmHg 93%
09:00 -4°C° 0 mm 8 mps 741 mmHg 92%
10:00 -4°C° 0 mm 8 mps 740 mmHg 91%
11:00 -4°C° 0 mm 8 mps 740 mmHg 89%
12:00 -2°C° 0 mm 7 mps 740 mmHg 88%
13:00 -2°C° 0 mm 7 mps 740 mmHg 88%
14:00 -3°C° 0 mm 7 mps 739 mmHg 88%
15:00 -3°C° 0 mm 7 mps 739 mmHg 88%
16:00 -3°C° 0.2 mm 6 mps 739 mmHg 91%
17:00 -2°C° 0.2 mm 5 mps 739 mmHg 93%
18:00 -3°C° 0.2 mm 4 mps 739 mmHg 96%
19:00 -3°C° 0.4 mm 4 mps 739 mmHg 96%
20:00 -2°C° 0.4 mm 3 mps 739 mmHg 96%
21:00 -2°C° 0.4 mm 3 mps 739 mmHg 96%
22:00 -3°C° 0.4 mm 2 mps 739 mmHg 96%
23:00 -3°C° 0.4 mm 2 mps 739 mmHg 97%

Tomorrow, 5 March, Friday

Time Temperature Precipitation Wind Pressure Humidity
00:00 -2°C° 0.4 mm 1 mps 739 mmHg 97%
01:00 -4°C° 0.3 mm 2 mps 739 mmHg 97%
02:00 -4°C° 0.3 mm 2 mps 739 mmHg 97%
03:00 -5°C° 0.3 mm 2 mps 740 mmHg 97%
04:00 -5°C° 0.1 mm 2 mps 740 mmHg 96%
05:00 -6°C° 0.1 mm 2 mps 741 mmHg 96%
06:00 -6°C° 0.1 mm 2 mps 741 mmHg 96%
07:00 -7°C° 0 mm 2 mps 742 mmHg 95%
08:00 -7°C° 0 mm 2 mps 742 mmHg 94%
09:00 -7°C° 0 mm 2 mps 743 mmHg 93%
10:00 -6°C° 0 mm 2 mps 743 mmHg 91%
11:00 -5°C° 0 mm 2 mps 744 mmHg 90%
12:00 -5°C° 0 mm 2 mps 744 mmHg 88%
13:00 -4°C° 0 mm 2 mps 745 mmHg 87%
14:00 -5°C° 0 mm 3 mps 745 mmHg 86%
15:00 -5°C° 0 mm 3 mps 746 mmHg 85%
16:00 -6°C° 0 mm 3 mps 746 mmHg 87%
17:00 -7°C° 0 mm 3 mps 746 mmHg 89%
18:00 -8°C° 0 mm 3 mps 746 mmHg 91%
19:00 -9°C° 0 mm 3 mps 747 mmHg 91%
20:00 -10°C° 0 mm 3 mps 748 mmHg 91%
21:00 -10°C° 0 mm 3 mps 748 mmHg 92%
22:00 -12°C° 0 mm 3 mps 749 mmHg 91%
23:00 -12°C° 0 mm 2 mps 749 mmHg 91%

Day after tomorrow, 6 March, Saturday

Time Temperature Precipitation Wind Pressure Humidity
00:00 -12°C° 0 mm 2 mps 749 mmHg 90%
01:00 -13°C° 0 mm 2 mps 750 mmHg 90%
02:00 -13°C° 0 mm 2 mps 750 mmHg 91%
03:00 -12°C° 0 mm 1 mps 750 mmHg 91%
04:00 -12°C° 0 mm 1 mps 750 mmHg 92%
05:00 -13°C° 0 mm 1 mps 750 mmHg 93%
06:00 -13°C° 0 mm 1 mps 750 mmHg 93%
07:00 -12°C° 0 mm 1 mps 750 mmHg 92%
08:00 -11°C° 0 mm 1 mps 751 mmHg 91%
09:00 -10°C° 0 mm 0 mps 751 mmHg 90%
10:00 -9°C° 0 mm 0 mps 751 mmHg 88%
11:00 -7°C° 0 mm 0 mps 751 mmHg 86%
12:00 -6°C° 0 mm 0 mps 751 mmHg 83%
13:00 -5°C° 0 mm 0 mps 750 mmHg 82%
14:00 -5°C° 0 mm 0 mps 750 mmHg 81%
15:00 -5°C° 0 mm 0 mps 750 mmHg 80%
16:00 -6°C° 0 mm 0 mps 750 mmHg 84%
17:00 -7°C° 0 mm 0 mps 750 mmHg 88%
18:00 -8°C° 0 mm 0 mps 749 mmHg 91%
19:00 -8°C° 0 mm 1 mps 750 mmHg 92%
20:00 -9°C° 0 mm 1 mps 750 mmHg 93%
21:00 -9°C° 0 mm 1 mps 750 mmHg 94%
22:00 -10°C° 0.1 mm 2 mps 750 mmHg 95%
23:00 -10°C° 0.1 mm 2 mps 750 mmHg 95%

7 March, Sunday

Time Temperature Precipitation Wind Pressure Humidity
00:00 -10°C° 0.1 mm 2 mps 750 mmHg 96%
01:00 -12°C° 0 mm 2 mps 750 mmHg 95%
02:00 -13°C° 0 mm 2 mps 750 mmHg 95%
03:00 -14°C° 0 mm 2 mps 749 mmHg 95%
04:00 -15°C° 0 mm 2 mps 749 mmHg 95%
05:00 -16°C° 0 mm 3 mps 749 mmHg 94%
06:00 -17°C° 0 mm 3 mps 748 mmHg 94%
07:00 -16°C° 0 mm 4 mps 748 mmHg 91%
08:00 -15°C° 0 mm 5 mps 747 mmHg 88%
09:00 -14°C° 0 mm 6 mps 746 mmHg 84%
10:00 -13°C° 0 mm 7 mps 745 mmHg 84%
11:00 -12°C° 0 mm 8 mps 745 mmHg 83%
12:00 -10°C° 0 mm 8 mps 744 mmHg 82%
13:00 -10°C° 0.1 mm 9 mps 743 mmHg 84%
14:00 -10°C° 0.1 mm 9 mps 741 mmHg 86%
15:00 -9°C° 0.1 mm 10 mps 740 mmHg 88%
16:00 -9°C° 0.6 mm 9 mps 739 mmHg 90%
17:00 -9°C° 0.6 mm 9 mps 739 mmHg 91%
18:00 -8°C° 0.6 mm 9 mps 738 mmHg 93%
19:00 -8°C° 0.5 mm 7 mps 738 mmHg 90%
20:00 -9°C° 0.5 mm 6 mps 738 mmHg 88%
21:00 -8°C° 0.5 mm 5 mps 739 mmHg 85%
22:00 -10°C° 0 mm 4 mps 739 mmHg 85%
23:00 -12°C° 0 mm 4 mps 739 mmHg 84%

8 March, Monday

Time Temperature Precipitation Wind Pressure Humidity
00:00 -14°C° 0 mm 4 mps 740 mmHg 84%
01:00 -15°C° 0 mm 4 mps 740 mmHg 82%
02:00 -15°C° 0 mm 4 mps 740 mmHg 80%
03:00 -15°C° 0 mm 4 mps 740 mmHg 77%
04:00 -15°C° 0 mm 4 mps 739 mmHg 80%
05:00 -15°C° 0 mm 4 mps 739 mmHg 82%
06:00 -15°C° 0 mm 4 mps 738 mmHg 85%
07:00 -13°C° 0 mm 5 mps 738 mmHg 86%
08:00 -11°C° 0 mm 5 mps 737 mmHg 87%
09:00 -10°C° 0 mm 6 mps 737 mmHg 88%
10:00 -11°C° 0.3 mm 7 mps 737 mmHg 87%
11:00 -10°C° 0.3 mm 8 mps 736 mmHg 85%
12:00 -10°C° 0.3 mm 9 mps 736 mmHg 84%
13:00 -11°C° 0.1 mm 9 mps 737 mmHg 83%
14:00 -11°C° 0.1 mm 8 mps 738 mmHg 82%
15:00 -12°C° 0.1 mm 8 mps 739 mmHg 82%
16:00 -12°C° 0.1 mm 8 mps 740 mmHg 82%
17:00 -13°C° 0.1 mm 8 mps 741 mmHg 82%
18:00 -13°C° 0.1 mm 8 mps 742 mmHg 82%
19:00 -14°C° 0 mm 7 mps 743 mmHg 83%
20:00 -14°C° 0 mm 6 mps 744 mmHg 85%
21:00 -14°C° 0 mm 5 mps 745 mmHg 86%
22:00 -15°C° 0 mm 4 mps 745 mmHg 89%
23:00 -16°C° 0 mm 4 mps 746 mmHg 91%

9 March, Tuesday

Time Temperature Precipitation Wind Pressure Humidity
00:00 -16°C° 0 mm 3 mps 747 mmHg 93%
01:00 -17°C° 0 mm 3 mps 747 mmHg 93%
02:00 -18°C° 0 mm 3 mps 747 mmHg 94%
03:00 -18°C° 0 mm 3 mps 748 mmHg 95%
04:00 -19°C° 0 mm 3 mps 748 mmHg 95%
05:00 -18°C° 0 mm 2 mps 749 mmHg 95%
06:00 -18°C° 0 mm 2 mps 749 mmHg 96%
07:00 -17°C° 0 mm 2 mps 749 mmHg 95%
08:00 -17°C° 0 mm 2 mps 750 mmHg 94%
09:00 -16°C° 0 mm 2 mps 750 mmHg 94%
10:00 -14°C° 0 mm 2 mps 750 mmHg 91%
11:00 -13°C° 0 mm 2 mps 751 mmHg 88%
12:00 -12°C° 0 mm 2 mps 751 mmHg 86%
13:00 -10°C° 0 mm 2 mps 751 mmHg 86%
14:00 -10°C° 0 mm 2 mps 751 mmHg 86%
15:00 -9°C° 0 mm 2 mps 751 mmHg 85%
16:00 -10°C° 0 mm 2 mps 752 mmHg 88%
17:00 -12°C° 0 mm 2 mps 752 mmHg 90%
18:00 -13°C° 0 mm 2 mps 752 mmHg 93%
19:00 -15°C° 0 mm 3 mps 752 mmHg 93%
20:00 -15°C° 0 mm 3 mps 753 mmHg 93%
21:00 -16°C° 0 mm 3 mps 753 mmHg 93%
22:00 -17°C° 0 mm 3 mps 754 mmHg 94%
23:00 -17°C° 0 mm 3 mps 754 mmHg 95%
Show more